Overview Statistics Trail Chart Weather Telemetry Raw packets
 

This is the latest recevied weather packets stored in our database for station/object OE5RBO. If no packets are shown the sender has not sent any weather packets the latest 10 day(s).

<< 45 46 47 48 49 >>
Time Temp. Humidity Pressure Rain* Wind** Luminosity Snow
1787833728 31.67° C 56% 1015.1 hPa 0 mm - - -
1787833128 31.67° C 55% 1015.2 hPa 0 mm - - -
1787832528 32.22° C 52% 1015.4 hPa 0 mm - - -
1787831927 31.67° C 53% 1015.5 hPa 0 mm - - -
1787831327 30.56° C 56% 1015.5 hPa 0 mm - - -
1787830727 31.11° C 55% 1015.6 hPa 0 mm - - -
1787830126 31.67° C 54% 1015.7 hPa 0 mm - - -
1787829528 31.11° C 56% 1015.7 hPa 0 mm - - -
1787828926 30.56° C 58% 1015.7 hPa 0 mm - - -
1787828325 30° C 58% 1015.6 hPa 0 mm - - -
1787827725 30° C 61% 1015.6 hPa 0 mm - - -
1787827124 29.44° C 63% 1016.1 hPa 0 mm - - -
1787826524 31.11° C 58% 1015.9 hPa 0 mm - - -
1787825924 31.11° C 56% 1015.8 hPa 0 mm - - -
1787825323 28.89° C 62% 1015.8 hPa 0 mm - - -
1787824723 28.89° C 61% 1015.9 hPa 0 mm - - -
1787824123 28.89° C 63% 1015.8 hPa 0 mm - - -
1787823522 27.22° C 66% 1015.7 hPa 0 mm - - -
1787822922 27.22° C 64% 1015.6 hPa 0 mm - - -
1787822322 27.78° C 62% 1015.6 hPa 0 mm - - -
1787821721 27.78° C 63% 1015.8 hPa 0 mm - - -
1787821121 28.33° C 64% 1015.7 hPa 0 mm - - -
1787820521 27.78° C 67% 1015.7 hPa 0 mm - - -
1787819320 26.11° C 71% 1015.9 hPa 0 mm - - -
1787818119 25.56° C 75% 1015.8 hPa 0 mm - - -

* Rain since midnight (hover to see other rain measurements)
** Current wind speed in m/s (hover to see current wind gust speed)